WetterOnline ( http://www.wetteronline.de )

Wetter aktuell Regen

Aktuelles Wetter: Zwiesel (613m)

6-stündlich | Neueste Meldungen
Ortszeit Temperatur Wetter
Fr, 20.10. 20:00 10.4° C bewölkt
Fr, 20.10. 14:00 18.6° C wolkig
Fr, 20.10. 8:00 1.8° C wolkig
Fr, 20.10. 2:00 3.9° C wolkig
Ortszeit Temperatur Wetter
Fr, 20.10. 21:30 9.0° C wolkig
Fr, 20.10. 21:00 9.5° C wolkig
Fr, 20.10. 20:30 9.6° C wolkig
Fr, 20.10. 20:00 10.4° C bewölkt
Fr, 20.10. 19:30 10.5° C bedeckt
Fr, 20.10. 19:00 11.7° C wolkig
Ortszeit Relative Feuchte Sichtweite
Fr, 20.10. 20:00 86% 15 km
Fr, 20.10. 14:00 42% 30 km
Fr, 20.10. 8:00 93% 25 km
Fr, 20.10. 2:00 95% 21 km
Ortszeit Relative Feuchte Sichtweite
Fr, 20.10. 21:30 90% 10 km
Fr, 20.10. 21:00 89% 14 km
Fr, 20.10. 20:30 86% 12 km
Fr, 20.10. 20:00 86% 15 km
Fr, 20.10. 19:30 85% 15 km
Fr, 20.10. 19:00 80% 17 km
Ortszeit Niederschlagsmenge Niederschlagsart
Fr, 20.10. 20:00 0.0 l/m2 in 12 Std. -
Fr, 20.10. 14:00 0.0 l/m2 in 6 Std. -
Fr, 20.10. 8:00 0.0 l/m2 in 12 Std. -
Fr, 20.10. 2:00 0.0 l/m2 in 6 Std. -
Ortszeit Niederschlagsmenge Niederschlagsart
Fr, 20.10. 21:30 keine Meldung -
Fr, 20.10. 21:00 0.0 l/m2 in 1 Std. -
Fr, 20.10. 20:30 keine Meldung -
Fr, 20.10. 20:00 0.0 l/m2 in 1 Std. -
Fr, 20.10. 19:30 keine Meldung -
Fr, 20.10. 19:00 0.0 l/m2 in 1 Std. -
Ortszeit Stärke Spitze Richtung
km/h Bft. km/h Grad Sektor
Fr, 20.10. 20:00 0 0 25 - -
Fr, 20.10. 14:00 7 2 18 230° SW
Fr, 20.10. 8:00 2 1 6 310° NW
Fr, 20.10. 2:00 0 0 7 - -
Ortszeit Stärke Spitze Richtung
km/h Bft. km/h Grad Sektor
Fr, 20.10. 21:30 0 0 4 - -
Fr, 20.10. 21:00 4 1 7 90° O
Fr, 20.10. 20:30 2 1 7 60° NO
Fr, 20.10. 20:00 0 0 4 - -
Fr, 20.10. 19:30 2 1 4 40° NO
Fr, 20.10. 19:00 4 1 7 100° O
Ortszeit Untergrenze Bedeckung Gattung
total tief tief mittel hoch
Fr, 20.10. 20:00 2700 m 8/8 6/8 - - -
Fr, 20.10. 14:00 5100 m 8/8 8/8 - - -
Fr, 20.10. 8:00 9000 m 7/8 0/8 - - -
Fr, 20.10. 2:00 8700 m 8/8 0/8 - - -
Ortszeit Bedeckungsgrad in Achtel und Wolkenuntergrenze
Fr, 20.10. 21:30 1(2100m) 5(2700m) 6(3600m)
Fr, 20.10. 21:00 1(2400m) 7(3600m) 7(7500m)
Fr, 20.10. 20:30 2(2400m) 6(3600m) 7(5400m)
Fr, 20.10. 20:00 6(2700m) 8(3600m)
Fr, 20.10. 19:30 8(3900m)
Fr, 20.10. 19:00 5(3900m)
Ortszeit Luftdruck NN (hPa) Tendenz (hPa in 3 Std.)
Fr, 20.10. 20:00 1018 + 0,7
Fr, 20.10. 14:00 1015 - 0,4
Fr, 20.10. 8:00 1019 + 0,5
Fr, 20.10. 2:00 1018 - 0,6
Ortszeit Luftdruck NN (hPa) Tendenz (hPa in 3 Std.)
Fr, 20.10. 21:30 1019 + 0,8
Fr, 20.10. 21:00 1019 + 0,9
Fr, 20.10. 20:30 1018 + 0,5
Fr, 20.10. 20:00 1018 + 0,7
Fr, 20.10. 19:30 1018 + 0,8
Fr, 20.10. 19:00 1017 + 0,6
Ortszeit Schneehöhe (cm)
Fr, 20.10. 20:00 -
Fr, 20.10. 14:00 -
Fr, 20.10. 8:00 -
Fr, 20.10. 2:00 -
Ortszeit Schneehöhe (cm)
Fr, 20.10. 21:30 -
Fr, 20.10. 21:00 -
Fr, 20.10. 20:30 -
Fr, 20.10. 20:00 -
Fr, 20.10. 19:30 -
Fr, 20.10. 19:00 -
Link zu dieser Seite / Seite empfehlen

Das Wetter in ...